Hourly Weather Lebrija

Today, 11 August, Tuesday

Time Temperature Precipitation Wind Pressure Humidity
00:00 +25°C° 0 mm 3 mps 756 mmHg 74%
01:00 +24°C° 0 mm 2 mps 756 mmHg 77%
02:00 +24°C° 0 mm 1 mps 755 mmHg 80%
03:00 +23°C° 0 mm 1 mps 755 mmHg 83%
04:00 +23°C° 0 mm 1 mps 755 mmHg 84%
05:00 +23°C° 0 mm 1 mps 755 mmHg 84%
06:00 +23°C° 0 mm 1 mps 755 mmHg 84%
07:00 +25°C° 0 mm 1 mps 755 mmHg 76%
08:00 +27°C° 0 mm 1 mps 755 mmHg 67%
09:00 +29°C° 0 mm 1 mps 755 mmHg 59%
10:00 +30°C° 0.1 mm 2 mps 756 mmHg 53%
11:00 +33°C° 0.1 mm 3 mps 756 mmHg 48%
12:00 +34°C° 0.1 mm 4 mps 756 mmHg 43%
13:00 +34°C° 0.3 mm 5 mps 756 mmHg 44%
14:00 +33°C° 0.3 mm 6 mps 755 mmHg 46%
15:00 +33°C° 0.3 mm 6 mps 755 mmHg 47%
16:00 +32°C° 0 mm 6 mps 755 mmHg 49%
17:00 +29°C° 0 mm 6 mps 755 mmHg 51%
18:00 +28°C° 0 mm 6 mps 755 mmHg 53%
19:00 +26°C° 0 mm 5 mps 756 mmHg 63%
20:00 +25°C° 0 mm 4 mps 756 mmHg 72%
21:00 +22°C° 0 mm 4 mps 757 mmHg 82%
22:00 +22°C° 0 mm 3 mps 757 mmHg 83%
23:00 +21°C° 0 mm 3 mps 757 mmHg 84%

Tomorrow, 12 August, Wednesday

Time Temperature Precipitation Wind Pressure Humidity
00:00 +21°C° 0 mm 3 mps 758 mmHg 85%
01:00 +20°C° 0 mm 3 mps 758 mmHg 86%
02:00 +20°C° 0 mm 3 mps 758 mmHg 88%
03:00 +19°C° 0 mm 3 mps 758 mmHg 89%
04:00 +19°C° 0 mm 2 mps 758 mmHg 90%
05:00 +19°C° 0 mm 2 mps 758 mmHg 91%
06:00 +19°C° 0 mm 2 mps 758 mmHg 92%
07:00 +20°C° 0 mm 2 mps 758 mmHg 85%
08:00 +22°C° 0 mm 3 mps 759 mmHg 77%
09:00 +24°C° 0 mm 3 mps 759 mmHg 69%
10:00 +25°C° 0 mm 3 mps 759 mmHg 63%
11:00 +27°C° 0 mm 4 mps 759 mmHg 56%
12:00 +28°C° 0 mm 4 mps 759 mmHg 50%
13:00 +29°C° 0 mm 4 mps 759 mmHg 47%
14:00 +30°C° 0 mm 5 mps 759 mmHg 44%
15:00 +30°C° 0 mm 5 mps 758 mmHg 42%
16:00 +29°C° 0 mm 5 mps 758 mmHg 47%
17:00 +28°C° 0 mm 5 mps 758 mmHg 52%
18:00 +27°C° 0 mm 5 mps 758 mmHg 58%
19:00 +26°C° 0 mm 4 mps 758 mmHg 66%
20:00 +24°C° 0 mm 3 mps 758 mmHg 75%
21:00 +23°C° 0 mm 2 mps 759 mmHg 84%
22:00 +21°C° 0 mm 2 mps 759 mmHg 85%
23:00 +21°C° 0 mm 2 mps 759 mmHg 87%

Day after tomorrow, 13 August, Thursday

Time Temperature Precipitation Wind Pressure Humidity
00:00 +21°C° 0 mm 2 mps 759 mmHg 88%
01:00 +20°C° 0 mm 2 mps 759 mmHg 89%
02:00 +21°C° 0 mm 1 mps 759 mmHg 89%
03:00 +21°C° 0 mm 1 mps 759 mmHg 90%
04:00 +20°C° 0 mm 1 mps 759 mmHg 90%
05:00 +20°C° 0 mm 1 mps 759 mmHg 89%
06:00 +20°C° 0 mm 1 mps 759 mmHg 89%
07:00 +22°C° 0 mm 1 mps 759 mmHg 78%
08:00 +25°C° 0 mm 1 mps 759 mmHg 68%
09:00 +27°C° 0 mm 1 mps 759 mmHg 57%
10:00 +29°C° 0 mm 2 mps 759 mmHg 50%
11:00 +31°C° 0 mm 3 mps 759 mmHg 43%
12:00 +34°C° 0 mm 3 mps 759 mmHg 36%
13:00 +34°C° 0 mm 4 mps 758 mmHg 34%
14:00 +34°C° 0 mm 5 mps 758 mmHg 33%
15:00 +35°C° 0 mm 5 mps 758 mmHg 31%
16:00 +33°C° 0 mm 5 mps 757 mmHg 35%
17:00 +32°C° 0 mm 5 mps 757 mmHg 39%
18:00 +30°C° 0 mm 5 mps 757 mmHg 44%
19:00 +27°C° 0 mm 4 mps 757 mmHg 55%
20:00 +25°C° 0 mm 3 mps 758 mmHg 67%
21:00 +23°C° 0 mm 2 mps 758 mmHg 78%
22:00 +23°C° 0 mm 2 mps 758 mmHg 80%
23:00 +21°C° 0 mm 2 mps 759 mmHg 81%

14 August, Friday

Time Temperature Precipitation Wind Pressure Humidity
00:00 +21°C° 0 mm 2 mps 759 mmHg 82%
01:00 +20°C° 0 mm 2 mps 758 mmHg 81%
02:00 +20°C° 0 mm 2 mps 758 mmHg 81%
03:00 +21°C° 0 mm 1 mps 758 mmHg 80%
04:00 +20°C° 0 mm 1 mps 758 mmHg 80%
05:00 +20°C° 0 mm 1 mps 758 mmHg 81%
06:00 +20°C° 0 mm 1 mps 758 mmHg 81%
07:00 +22°C° 0 mm 1 mps 758 mmHg 70%
08:00 +25°C° 0 mm 1 mps 758 mmHg 59%
09:00 +27°C° 0 mm 2 mps 759 mmHg 49%
10:00 +30°C° 0 mm 2 mps 758 mmHg 42%
11:00 +33°C° 0 mm 3 mps 758 mmHg 35%
12:00 +35°C° 0 mm 4 mps 758 mmHg 28%
13:00 +35°C° 0 mm 4 mps 758 mmHg 26%
14:00 +36°C° 0 mm 5 mps 757 mmHg 23%
15:00 +36°C° 0 mm 6 mps 757 mmHg 21%
16:00 +35°C° 0 mm 6 mps 757 mmHg 27%
17:00 +33°C° 0 mm 5 mps 757 mmHg 32%
18:00 +30°C° 0 mm 5 mps 756 mmHg 38%
19:00 +28°C° 0 mm 4 mps 757 mmHg 47%
20:00 +26°C° 0 mm 4 mps 757 mmHg 55%
21:00 +24°C° 0 mm 3 mps 758 mmHg 64%
22:00 +24°C° 0 mm 3 mps 758 mmHg 62%
23:00 +22°C° 0 mm 3 mps 758 mmHg 60%

15 August, Saturday

Time Temperature Precipitation Wind Pressure Humidity
00:00 +22°C° 0 mm 3 mps 758 mmHg 57%
01:00 +21°C° 0 mm 2 mps 758 mmHg 58%
02:00 +21°C° 0 mm 2 mps 758 mmHg 59%
03:00 +20°C° 0 mm 2 mps 758 mmHg 60%
04:00 +20°C° 0 mm 2 mps 758 mmHg 60%
05:00 +19°C° 0 mm 2 mps 758 mmHg 59%
06:00 +19°C° 0 mm 2 mps 758 mmHg 58%
07:00 +23°C° 0 mm 2 mps 758 mmHg 50%
08:00 +25°C° 0 mm 2 mps 758 mmHg 42%
09:00 +28°C° 0 mm 2 mps 758 mmHg 34%
10:00 +30°C° 0 mm 2 mps 758 mmHg 30%
11:00 +33°C° 0 mm 3 mps 758 mmHg 25%
12:00 +35°C° 0 mm 4 mps 758 mmHg 20%
13:00 +35°C° 0 mm 5 mps 758 mmHg 20%
14:00 +35°C° 0 mm 5 mps 757 mmHg 20%
15:00 +36°C° 0 mm 6 mps 757 mmHg 20%
16:00 +34°C° 0 mm 6 mps 756 mmHg 28%
17:00 +32°C° 0 mm 6 mps 756 mmHg 37%
18:00 +28°C° 0 mm 6 mps 756 mmHg 45%
19:00 +27°C° 0 mm 5 mps 756 mmHg 51%
20:00 +26°C° 0 mm 4 mps 757 mmHg 57%
21:00 +24°C° 0 mm 3 mps 757 mmHg 63%
22:00 +24°C° 0 mm 3 mps 758 mmHg 61%
23:00 +22°C° 0 mm 3 mps 758 mmHg 60%

16 August, Sunday

Time Temperature Precipitation Wind Pressure Humidity
00:00 +22°C° 0 mm 3 mps 758 mmHg 59%
01:00 +21°C° 0 mm 3 mps 758 mmHg 59%
02:00 +20°C° 0 mm 3 mps 758 mmHg 60%
03:00 +20°C° 0 mm 3 mps 757 mmHg 61%
04:00 +19°C° 0 mm 3 mps 758 mmHg 62%
05:00 +19°C° 0 mm 2 mps 758 mmHg 63%
06:00 +18°C° 0 mm 2 mps 758 mmHg 64%
07:00 +20°C° 0 mm 2 mps 758 mmHg 56%
08:00 +24°C° 0 mm 3 mps 758 mmHg 48%
09:00 +26°C° 0 mm 3 mps 758 mmHg 40%
10:00 +28°C° 0 mm 3 mps 758 mmHg 33%
11:00 +30°C° 0 mm 3 mps 758 mmHg 27%
12:00 +34°C° 0 mm 4 mps 758 mmHg 20%
13:00 +34°C° 0 mm 4 mps 757 mmHg 20%
14:00 +35°C° 0 mm 5 mps 757 mmHg 19%
15:00 +36°C° 0 mm 6 mps 756 mmHg 19%
16:00 +34°C° 0 mm 6 mps 756 mmHg 24%
17:00 +33°C° 0 mm 6 mps 756 mmHg 29%
18:00 +30°C° 0 mm 6 mps 756 mmHg 34%
19:00 +29°C° 0 mm 5 mps 756 mmHg 37%
20:00 +27°C° 0 mm 4 mps 757 mmHg 41%
21:00 +25°C° 0 mm 4 mps 757 mmHg 44%
22:00 +25°C° 0 mm 4 mps 758 mmHg 45%
23:00 +23°C° 0 mm 4 mps 758 mmHg 46%
Show more